MAKERSAT 0

Last updated on Sun Jun 21 2026 00:03:50 GMT+0000 (Coordinated Universal Time)

1 43016U 17073D 26171.18420895 .00014694 00000+0 39936-3 0 9992 2 43016 97.4616 53.7262 0104941 262.1211 96.8109 15.32181843466924
UTC large
Height (km)
Speed (km/s)
/
Latitude / Longitude
Inclination (degrees)
Orbital Period (minutes)
Azimuth
Elevation
Range (km)
Doppler Factor

Next 0 passes for location: London (51.5072 / 0.1276)

No passes found over London.
MAKERSAT 0